Weather History for Hobart, OK

Change the Weather History Date:

Sunday, September 9, 2012

  Actual Average Record
Temperature  
Mean Temperature 72 °F -  
Max Temperature 91 °F 88 °F 98 °F (2014)
Min Temperature 52 °F 64 °F 48 °F (2004)
Cooling Degree Days 6    
Growing Degree Days 22 (Base 50)    
Moisture  
Dew Point 40 °F    
Average Humidity 40    
Maximum Humidity 80    
Minimum Humidity 13    
Precipitation  
Precipitation 0.00 in - - ()
Sea Level Pressure  
Sea Level Pressure 30.11 in    
Wind  
Wind Speed 5 mph (West)    
Max Wind Speed 10 mph    
Max Gust Speed 16 mph    
Visibility 10 miles    
Events      
Averages and records for this station are not official NWS values.
T = Trace of Precipitation, MM = Missing Value Source: NWS Daily Summary

Daily Weather History Graph

Daily Weather History Graph

Search for Another Location

Airport:

Trip Planner

Search our weather history database for the weather conditions in past years. The results will help you decide how hot, cold, wet, or windy it might be!

Date:

Astronomy

Sep. 09, 2012 Rise Set
Actual Time 7:15 AM CDT 7:50 PM CDT
Civil Twilight 6:49 AM CDT 8:16 PM CDT
Nautical Twilight 6:19 AM CDT 8:46 PM CDT
Astronomical Twilight 5:48 AM CDT 9:17 PM CDT
Moon 12:55 AM CDT (9/9) 3:27 PM CDT (9/9)
Length of Visible Light 13h 26m
Length of Day
12h 35m
Last Quarter, 39% of the Moon is Illuminated
Sep 9
Last Quarter
Sep 15
New
Sep 22
First Quarter
Sep 29
Full
Oct 8
Last Quarter

Hourly Weather History & Observations

Time (CDT) Temp. Dew Point Humidity Pressure Visibility Wind Dir Wind Speed Gust Speed Precip Events Conditions
12:53 AM 59.0 °F 45.0 °F 60% 30.12 in 10.0 mi WNW 5.8 mph - N/A   Clear
1:53 AM 59.0 °F 46.0 °F 62% 30.11 in 10.0 mi NW 4.6 mph - N/A   Clear
2:53 AM 57.0 °F 46.0 °F 67% 30.11 in 10.0 mi NW 4.6 mph - N/A   Clear
3:53 AM 54.0 °F 46.0 °F 75% 30.12 in 10.0 mi WNW 6.9 mph - N/A   Clear
4:53 AM 54.0 °F 46.0 °F 75% 30.13 in 10.0 mi NW 4.6 mph - N/A   Clear
5:53 AM 54.0 °F 46.9 °F 77% 30.13 in 10.0 mi NW 4.6 mph - N/A   Clear
6:53 AM 52.0 °F 46.0 °F 80% 30.15 in 10.0 mi WNW 4.6 mph - N/A   Clear
7:53 AM 54.0 °F 48.0 °F 80% 30.16 in 10.0 mi NW 5.8 mph - N/A   Clear
8:53 AM 64.0 °F 48.0 °F 56% 30.17 in 10.0 mi Calm Calm - N/A   Clear
9:53 AM 73.9 °F 45.0 °F 35% 30.17 in 10.0 mi NW 5.8 mph - N/A   Clear
10:53 AM 80.6 °F 41.0 °F 24% 30.21 in 10.0 mi WNW 4.6 mph - N/A   Clear
11:53 AM 84.9 °F 36.0 °F 17% 30.16 in 10.0 mi Calm Calm - N/A   Clear
12:53 PM 87.1 °F 35.1 °F 16% 30.14 in 10.0 mi SSE 9.2 mph - N/A   Clear
1:53 PM 87.1 °F 35.1 °F 16% 30.12 in 10.0 mi Variable 6.9 mph - N/A   Clear
2:53 PM 89.1 °F 34.0 °F 14% 30.09 in 10.0 mi Calm Calm - N/A   Clear
3:53 PM 89.6 °F 33.8 °F 14% 30.12 in 10.0 mi Variable 3.5 mph 16.1 mph N/A   Clear
4:53 PM 91.0 °F 33.1 °F 13% 30.06 in 10.0 mi Variable 3.5 mph - N/A   Clear
5:53 PM 90.0 °F 32.0 °F 13% 30.06 in 10.0 mi SE 5.8 mph - N/A   Clear
6:53 PM 89.1 °F 33.1 °F 14% 30.05 in 10.0 mi ENE 6.9 mph - N/A   Clear
7:53 PM 81.0 °F 36.0 °F 20% 30.06 in 10.0 mi East 5.8 mph - N/A   Clear
8:53 PM 75.0 °F 37.0 °F 25% 30.07 in 10.0 mi South 8.1 mph - N/A   Clear
9:53 PM 71.1 °F 39.0 °F 31% 30.08 in 10.0 mi South 10.4 mph - N/A   Clear
10:53 PM 69.1 °F 39.0 °F 33% 30.07 in 10.0 mi WSW 5.8 mph - N/A   Clear
11:53 PM 66.0 °F 39.9 °F 38% 30.07 in 10.0 mi SW 5.8 mph - N/A   Clear